THOR ABLESTAR DEB, 467

Orbit data source: Space-Track

THOR ABLESTAR DEB, 467 is space debris in LEO originally from a launch on Thu, 29 Jun 1961 UTC launched from the Air Force Eastern Test Range (AFETR). Debris objects in space refer to the collection of defunct objects orbiting the Earth. Examples of debris include non-operational satellites, rocket bodies, and fragments generated from explosions, collisions, or faulty payload assembly.

Loading next visibility...
Identifier
467, 1961-015FD
Orbit
LEO
Last TLE update
1 day ago
Origin
Manufacturer
Unknown
Mission
Spacecraft
Bus & Motor
Unknown
Mass
Unknown
Launch date (UTC)
1961-06-29 (64 years ago)
Launch vehicle
Unknown
Launch site
Air Force Eastern Test Range (AFETR)
Object type
Payload
Rocket body
Debris
Shape & HBR
Unknown
Radar Cross Section
Small (<0.1 m²)

Expand to show TLE details & history

TLE from 1 day ago
0 THOR ABLESTAR DEB
1 00467U 61015FD  25199.22157196  .00000458  00000-0  62661-3 0  9990
2 00467  66.5566 146.0337 0240660 168.2285 192.4542 13.56116371235637
Epoch: 2025-07-18T05:19Z
TLE epoch observation values (Epoch: 2025-07-18T05:19:03.817Z)
Latitude
-0.00008°
Longitude
129.99162°
Altitude
1,226.632 km
Speed
7.156 km/s
True Right ascension
09h 44m 08s
True Declination
0° 00' 00"
Sunlit
Object was in daylight at epoch
Visualization orbit readout
Latitude
66.26797°
Longitude
-154.07683°
Altitude
1,031.077 km
Speed
7.357 km/s
Apparent Right ascension
13h 28m 01s
Apparent Declination
19° 28' 60"
Sunlit
Object is in daylight
Visualization observer readout
Local Sidereal Time
00:39:55
Azimuth
346.954° N
Elevation
-29.551°
Doppler factor
1
Orbital elements
Apogee altitude
1,227.011 km
Perigee altitude
869.562 km
Semi-major axis
7,426.423 km
Eccentricity
0.02407
Inclination
66.5566°
RAAN
146.0337°
Arg. of periapsis
168.2285°
True anomaly
191.87646°
Mean anomaly
192.4542°
Eccentric anomaly
192.16366°
Mean motion
3.39136 °/min
Orbital period
106.15 mins
BSTAR
0.00062661
Loading maneuver chart data...
Loading SW <> Apogee altitude chart data...
|